History for KIDP

Independence, KS

Daily Weekly Monthly
Daily Summary for Saturday, March 23, 2019
  Actual: Average: Record:
Temperature
Mean Temperature: 51 °F / 11 °C 49 °F / 9 °C :  
Max Temperature: 54 °F / 12 °C 61 °F / 16 °C 94 °F / 34 °C (1910)
Min Temperature: 48 °F / 9 °C 38 °F / 3 °C 13 °F / -10 °C (1974)
Degree Days
Heating Degree Days: 14 16  
Month to date heating degree days 444  
Since 1 July heating degree days 4016  
Cooling Degree Days 0 0  
Month to date cooling degree days 0  
Year to date cooling degree days 0  
Growing Degree Days 1 (Base 50)    
Moisture
Dew Point 45 °F / 7 °C    
Average Humidity 79    
Maximum Humidity 96    
Minimum Humidity 46    
Precipitation
Precipitation 0.24 in / 6.10 cm 0.10 in / 2.54 cm 1.62 in / 4.11 cm (1958)
Month to date precipitation 2.17  
Year to date precipitation 5.33  
Sea Level Pressure
Sea Level Pressure 30.05 in / 1017 hPa   
Wind
Wind Speed 10 mph / 16 km/h (SE)  
Max Wind Speed 25 mph / 40 km/h   
Max Gust Speed 31 mph / 50 km/h   
Visibility 9 miles / 14 kilometers   
Events Rain , Thunderstorm   

Click here for data from the nearest station with official NWS data (KCNU).
Key: T is trace of precipitation, MM is missing value
Source: NWS Daily Summary

Graphs

Observations

History Graphs Observations

Obs Go Here...

Features

Weather Apps

WunderRadio

Weather Underground Apps
Check out our wide variety of mobile and setup applications.

Weather Underground Applications

Top of Page

© Copyright 2019
The Weather Company, LLC
Time(CDT)TemperatureDew PointHumidity Sea Level Pressure Visibility Wind DirectionWind SpeedGust SpeedPrecipitationEvents Conditions
12:15 AM 54.1 °F / 12.3 °C 35.2 °F / 1.8 °C 49% 30.08 in / 1018.5 hPa 10.0 miles / 16.1 kilometers East 8.1 mph / 13.0 km/h - N/A   Scattered Clouds
12:35 AM 54.9 °F / 12.7 °C 35.4 °F / 1.9 °C 48% 30.07 in / 1018.2 hPa 10.0 miles / 16.1 kilometers East 9.2 mph / 14.8 km/h - N/A   Mostly Cloudy
12:55 AM 54.9 °F / 12.7 °C 34.5 °F / 1.4 °C 46% 30.08 in / 1018.5 hPa 10.0 miles / 16.1 kilometers ESE 6.9 mph / 11.1 km/h - N/A   Mostly Cloudy
1:15 AM 53.2 °F / 11.8 °C 35.2 °F / 1.8 °C 51% 30.08 in / 1018.5 hPa 10.0 miles / 16.1 kilometers ESE 5.8 mph / 9.3 km/h - N/A   Scattered Clouds
1:35 AM 53.6 °F / 12.0 °C 35.4 °F / 1.9 °C 50% 30.07 in / 1018.2 hPa 10.0 miles / 16.1 kilometers East 6.9 mph / 11.1 km/h - N/A   Scattered Clouds
1:55 AM 52.7 °F / 11.5 °C 36.5 °F / 2.5 °C 54% 30.07 in / 1018.2 hPa 10.0 miles / 16.1 kilometers East 6.9 mph / 11.1 km/h - N/A   Mostly Cloudy
2:15 AM 53.4 °F / 11.9 °C 36.1 °F / 2.3 °C 52% 30.07 in / 1018.2 hPa 10.0 miles / 16.1 kilometers East 8.1 mph / 13.0 km/h - N/A   Overcast
2:35 AM 52.7 °F / 11.5 °C 36.3 °F / 2.4 °C 54% 30.07 in / 1018.2 hPa 10.0 miles / 16.1 kilometers East 6.9 mph / 11.1 km/h - N/A   Mostly Cloudy
2:55 AM 53.1 °F / 11.7 °C 36.3 °F / 2.4 °C 53% 30.06 in / 1017.8 hPa 10.0 miles / 16.1 kilometers East 8.1 mph / 13.0 km/h - N/A   Mostly Cloudy
3:15 AM 53.4 °F / 11.9 °C 36.0 °F / 2.2 °C 52% 30.06 in / 1017.8 hPa 10.0 miles / 16.1 kilometers East 8.1 mph / 13.0 km/h - N/A   Overcast
3:35 AM 53.1 °F / 11.7 °C 36.1 °F / 2.3 °C 53% 30.06 in / 1017.8 hPa 10.0 miles / 16.1 kilometers East 6.9 mph / 11.1 km/h - N/A   Overcast
3:55 AM 52.9 °F / 11.6 °C 36.1 °F / 2.3 °C 53% 30.06 in / 1017.8 hPa 10.0 miles / 16.1 kilometers NE 4.6 mph / 7.4 km/h - N/A   Overcast
4:15 AM 51.4 °F / 10.8 °C 36.9 °F / 2.7 °C 58% 30.07 in / 1018.2 hPa 10.0 miles / 16.1 kilometers NE 4.6 mph / 7.4 km/h - N/A   Overcast
4:35 AM 50.5 °F / 10.3 °C 38.1 °F / 3.4 °C 62% 30.08 in / 1018.5 hPa 10.0 miles / 16.1 kilometers NW 3.5 mph / 5.6 km/h - N/A   Overcast
4:55 AM 49.8 °F / 9.9 °C 38.7 °F / 3.7 °C 65% 30.10 in / 1019.2 hPa 10.0 miles / 16.1 kilometers West 10.4 mph / 16.7 km/h - N/A   Overcast
5:15 AM 51.1 °F / 10.6 °C 37.6 °F / 3.1 °C 60% 30.09 in / 1018.8 hPa 10.0 miles / 16.1 kilometers WNW 4.6 mph / 7.4 km/h - N/A   Overcast
5:35 AM 51.1 °F / 10.6 °C 38.8 °F / 3.8 °C 63% 30.10 in / 1019.2 hPa 10.0 miles / 16.1 kilometers SW 4.6 mph / 7.4 km/h - N/A Rain Rain
5:55 AM 50.4 °F / 10.2 °C 40.6 °F / 4.8 °C 69% 30.09 in / 1018.8 hPa 10.0 miles / 16.1 kilometers West 4.6 mph / 7.4 km/h - N/A Rain Light Rain
6:15 AM 49.5 °F / 9.7 °C 41.9 °F / 5.5 °C 75% 30.10 in / 1019.2 hPa 10.0 miles / 16.1 kilometers SE 4.6 mph / 7.4 km/h - N/A   Overcast
6:35 AM 49.1 °F / 9.5 °C 42.3 °F / 5.7 °C 77% 30.08 in / 1018.5 hPa 10.0 miles / 16.1 kilometers East 5.8 mph / 9.3 km/h - N/A Rain Light Rain
6:55 AM 49.3 °F / 9.6 °C 42.6 °F / 5.9 °C 78% 30.08 in / 1018.5 hPa 10.0 miles / 16.1 kilometers Calm Calm - N/A   Light Drizzle
7:15 AM 49.3 °F / 9.6 °C 43.2 °F / 6.2 °C 79% 30.07 in / 1018.2 hPa 10.0 miles / 16.1 kilometers East 5.8 mph / 9.3 km/h - N/A   Overcast
7:35 AM 49.6 °F / 9.8 °C 41.9 °F / 5.5 °C 75% 30.08 in / 1018.5 hPa 10.0 miles / 16.1 kilometers ESE 6.9 mph / 11.1 km/h - N/A   Overcast
7:55 AM 50.4 °F / 10.2 °C 41.9 °F / 5.5 °C 73% 30.07 in / 1018.2 hPa 10.0 miles / 16.1 kilometers ESE 5.8 mph / 9.3 km/h - N/A   Overcast
8:15 AM 50.4 °F / 10.2 °C 42.6 °F / 5.9 °C 75% 30.05 in / 1017.5 hPa 7.0 miles / 11.3 kilometers East 12.7 mph / 20.4 km/h - N/A   Overcast
8:35 AM 50.4 °F / 10.2 °C 41.0 °F / 5.0 °C 70% 30.06 in / 1017.8 hPa 10.0 miles / 16.1 kilometers East 9.2 mph / 14.8 km/h - N/A   Overcast
8:55 AM 49.8 °F / 9.9 °C 42.1 °F / 5.6 °C 75% 30.11 in / 1019.5 hPa 10.0 miles / 16.1 kilometers West 17.3 mph / 27.8 km/h - N/A   Overcast
9:15 AM 49.6 °F / 9.8 °C 43.3 °F / 6.3 °C 79% 30.12 in / 1019.9 hPa 10.0 miles / 16.1 kilometers West 9.2 mph / 14.8 km/h - N/A Rain Light Rain
9:35 AM 48.9 °F / 9.4 °C 44.2 °F / 6.8 °C 84% 30.11 in / 1019.5 hPa 5.0 miles / 8.0 kilometers ESE 8.1 mph / 13.0 km/h - 0.01 in / 0.3 cm Rain Light Rain
9:55 AM 48.7 °F / 9.3 °C 45.1 °F / 7.3 °C 87% 30.11 in / 1019.5 hPa 3.5 miles / 5.6 kilometers SE 11.5 mph / 18.5 km/h - 0.03 in / 0.8 cm Rain Rain
10:15 AM 48.7 °F / 9.3 °C 44.4 °F / 6.9 °C 85% 30.06 in / 1017.8 hPa 7.0 miles / 11.3 kilometers SE 17.3 mph / 27.8 km/h - 0.02 in / 0.5 cm Rain Light Rain
10:35 AM 49.6 °F / 9.8 °C 45.1 °F / 7.3 °C 84% 30.07 in / 1018.2 hPa 5.0 miles / 8.0 kilometers South 13.8 mph / 22.2 km/h - 0.02 in / 0.5 cm Rain Light Rain
10:55 AM 49.6 °F / 9.8 °C 45.5 °F / 7.5 °C 86% 30.03 in / 1016.8 hPa 7.0 miles / 11.3 kilometers SE 15.0 mph / 24.1 km/h 23.0 mph / 37.0 km/h 0.02 in / 0.5 cm Thunderstorm Unknown
11:15 AM 50.4 °F / 10.2 °C 46.4 °F / 8.0 °C 86% 30.04 in / 1017.2 hPa 10.0 miles / 16.1 kilometers SSE 15.0 mph / 24.1 km/h - N/A Thunderstorm Unknown
11:35 AM 50.2 °F / 10.1 °C 46.6 °F / 8.1 °C 87% 30.02 in / 1016.5 hPa 7.0 miles / 11.3 kilometers SSE 21.9 mph / 35.2 km/h - 0.01 in / 0.3 cm Rain Rain
11:55 AM 49.8 °F / 9.9 °C 46.8 °F / 8.2 °C 89% 30.07 in / 1018.2 hPa 3.0 miles / 4.8 kilometers SSE 18.4 mph / 29.6 km/h - 0.07 in / 1.8 cm Rain , Thunderstorm Thunderstorms and Rain
12:15 PM 50.5 °F / 10.3 °C 46.4 °F / 8.0 °C 86% 30.05 in / 1017.5 hPa 7.0 miles / 11.3 kilometers SSE 11.5 mph / 18.5 km/h - 0.01 in / 0.3 cm Rain Light Rain
12:35 PM 52.0 °F / 11.1 °C 47.7 °F / 8.7 °C 85% 30.05 in / 1017.5 hPa 5.0 miles / 8.0 kilometers SSE 16.1 mph / 25.9 km/h - 0.01 in / 0.3 cm Rain Light Rain
12:55 PM 51.8 °F / 11.0 °C 46.6 °F / 8.1 °C 82% 30.06 in / 1017.8 hPa 7.0 miles / 11.3 kilometers SSE 16.1 mph / 25.9 km/h 20.7 mph / 33.3 km/h 0.01 in / 0.3 cm   Light Drizzle
1:15 PM 50.4 °F / 10.2 °C 47.3 °F / 8.5 °C 89% 30.06 in / 1017.8 hPa 5.0 miles / 8.0 kilometers SSE 15.0 mph / 24.1 km/h - N/A Rain Light Rain
1:35 PM 50.2 °F / 10.1 °C 47.3 °F / 8.5 °C 90% 30.03 in / 1016.8 hPa 4.0 miles / 6.4 kilometers SE 25.3 mph / 40.7 km/h 29.9 mph / 48.2 km/h 0.05 in / 1.3 cm Rain , Thunderstorm Thunderstorms and Rain
1:55 PM 50.2 °F / 10.1 °C 48.0 °F / 8.9 °C 92% 30.00 in / 1015.8 hPa 10.0 miles / 16.1 kilometers SE 24.2 mph / 38.9 km/h 31.1 mph / 50.0 km/h 0.07 in / 1.8 cm Rain , Thunderstorm Light Thunderstorms and Rain
2:15 PM 50.7 °F / 10.4 °C 48.2 °F / 9.0 °C 91% 30.02 in / 1016.5 hPa 10.0 miles / 16.1 kilometers SE 15.0 mph / 24.1 km/h 28.8 mph / 46.3 km/h N/A Rain , Thunderstorm Light Thunderstorms and Rain
2:35 PM 50.7 °F / 10.4 °C 48.2 °F / 9.0 °C 91% 30.03 in / 1016.8 hPa 10.0 miles / 16.1 kilometers SSE 13.8 mph / 22.2 km/h - N/A Rain , Thunderstorm Light Thunderstorms and Rain
2:55 PM 51.1 °F / 10.6 °C 48.2 °F / 9.0 °C 90% 30.01 in / 1016.1 hPa 10.0 miles / 16.1 kilometers SE 15.0 mph / 24.1 km/h - N/A Thunderstorm Unknown
3:15 PM 52.5 °F / 11.4 °C 48.9 °F / 9.4 °C 88% 30.00 in / 1015.8 hPa 10.0 miles / 16.1 kilometers ESE 17.3 mph / 27.8 km/h - N/A Thunderstorm Thunderstorm
3:35 PM 52.0 °F / 11.1 °C 48.7 °F / 9.3 °C 89% 30.00 in / 1015.8 hPa 10.0 miles / 16.1 kilometers SE 16.1 mph / 25.9 km/h - N/A Rain , Thunderstorm Light Thunderstorms and Rain
3:55 PM 53.6 °F / 12.0 °C 49.6 °F / 9.8 °C 86% 30.00 in / 1015.8 hPa 10.0 miles / 16.1 kilometers SE 18.4 mph / 29.6 km/h - N/A Thunderstorm Thunderstorm
4:15 PM 52.9 °F / 11.6 °C 49.3 °F / 9.6 °C 88% 30.00 in / 1015.8 hPa 10.0 miles / 16.1 kilometers SE 17.3 mph / 27.8 km/h - N/A   Overcast
4:35 PM 52.9 °F / 11.6 °C 48.9 °F / 9.4 °C 86% 30.00 in / 1015.8 hPa 10.0 miles / 16.1 kilometers SE 17.3 mph / 27.8 km/h - N/A Thunderstorm Overcast
4:55 PM 52.2 °F / 11.2 °C 48.7 °F / 9.3 °C 88% 30.01 in / 1016.1 hPa 10.0 miles / 16.1 kilometers SE 12.7 mph / 20.4 km/h - N/A   Overcast
5:15 PM 51.4 °F / 10.8 °C 48.9 °F / 9.4 °C 91% 30.01 in / 1016.1 hPa 10.0 miles / 16.1 kilometers ESE 15.0 mph / 24.1 km/h - N/A   Drizzle
5:35 PM 51.1 °F / 10.6 °C 49.5 °F / 9.7 °C 94% 30.02 in / 1016.5 hPa 7.0 miles / 11.3 kilometers ESE 12.7 mph / 20.4 km/h - N/A Thunderstorm Unknown
5:55 PM 51.3 °F / 10.7 °C 49.8 °F / 9.9 °C 95% 30.01 in / 1016.1 hPa 10.0 miles / 16.1 kilometers ESE 11.5 mph / 18.5 km/h - N/A   Drizzle
6:15 PM 51.4 °F / 10.8 °C 50.2 °F / 10.1 °C 95% 30.02 in / 1016.5 hPa 7.0 miles / 11.3 kilometers ESE 12.7 mph / 20.4 km/h - N/A   Drizzle
6:35 PM 51.4 °F / 10.8 °C 50.4 °F / 10.2 °C 96% 30.02 in / 1016.5 hPa 7.0 miles / 11.3 kilometers SE 13.8 mph / 22.2 km/h 18.4 mph / 29.6 km/h N/A   Overcast
6:55 PM 51.8 °F / 11.0 °C 50.4 °F / 10.2 °C 95% 30.02 in / 1016.5 hPa 10.0 miles / 16.1 kilometers SE 13.8 mph / 22.2 km/h - N/A   Overcast
7:15 PM 52.0 °F / 11.1 °C 50.2 °F / 10.1 °C 94% 30.03 in / 1016.8 hPa 10.0 miles / 16.1 kilometers SSE 13.8 mph / 22.2 km/h - N/A   Overcast
7:35 PM 52.0 °F / 11.1 °C 50.2 °F / 10.1 °C 94% 30.02 in / 1016.5 hPa 10.0 miles / 16.1 kilometers SE 12.7 mph / 20.4 km/h - N/A   Overcast
7:55 PM 51.8 °F / 11.0 °C 50.0 °F / 10.0 °C 94% 30.02 in / 1016.5 hPa 10.0 miles / 16.1 kilometers SE 11.5 mph / 18.5 km/h - N/A   Overcast
8:15 PM 51.6 °F / 10.9 °C 50.2 °F / 10.1 °C 95% 30.02 in / 1016.5 hPa 10.0 miles / 16.1 kilometers SE 13.8 mph / 22.2 km/h - N/A   Overcast
8:35 PM 51.4 °F / 10.8 °C 49.8 °F / 9.9 °C 94% 30.02 in / 1016.5 hPa 10.0 miles / 16.1 kilometers SE 13.8 mph / 22.2 km/h - N/A Thunderstorm Overcast
8:55 PM 51.8 °F / 11.0 °C 49.5 °F / 9.7 °C 92% 30.02 in / 1016.5 hPa 10.0 miles / 16.1 kilometers SE 15.0 mph / 24.1 km/h 19.6 mph / 31.5 km/h N/A   Overcast
9:15 PM 51.8 °F / 11.0 °C 49.5 °F / 9.7 °C 92% 30.02 in / 1016.5 hPa 10.0 miles / 16.1 kilometers SE 11.5 mph / 18.5 km/h - N/A   Overcast
9:35 PM 51.6 °F / 10.9 °C 49.3 °F / 9.6 °C 92% 30.02 in / 1016.5 hPa 10.0 miles / 16.1 kilometers ESE 11.5 mph / 18.5 km/h - N/A Rain Light Rain
9:55 PM 51.6 °F / 10.9 °C 49.1 °F / 9.5 °C 91% 30.01 in / 1016.1 hPa 10.0 miles / 16.1 kilometers ESE 12.7 mph / 20.4 km/h - N/A Rain Light Rain
10:15 PM 51.4 °F / 10.8 °C 49.1 °F / 9.5 °C 92% 30.01 in / 1016.1 hPa 5.0 miles / 8.0 kilometers SE 12.7 mph / 20.4 km/h - 0.04 in / 1.0 cm Rain Heavy Rain
10:35 PM 51.4 °F / 10.8 °C 48.4 °F / 9.1 °C 89% 30.01 in / 1016.1 hPa 10.0 miles / 16.1 kilometers SE 16.1 mph / 25.9 km/h 21.9 mph / 35.2 km/h 0.04 in / 1.0 cm   Mostly Cloudy
10:55 PM 51.6 °F / 10.9 °C 48.6 °F / 9.2 °C 89% 30.01 in / 1016.1 hPa 10.0 miles / 16.1 kilometers SE 13.8 mph / 22.2 km/h - 0.04 in / 1.0 cm   Overcast
11:15 PM 50.9 °F / 10.5 °C 48.0 °F / 8.9 °C 90% 30.00 in / 1015.8 hPa 10.0 miles / 16.1 kilometers SE 16.1 mph / 25.9 km/h - N/A   Scattered Clouds
11:35 PM 50.4 °F / 10.2 °C 48.0 °F / 8.9 °C 92% 30.01 in / 1016.1 hPa 10.0 miles / 16.1 kilometers SE 9.2 mph / 14.8 km/h - N/A   Scattered Clouds
11:55 PM 50.0 °F / 10.0 °C 48.2 °F / 9.0 °C 94% 30.01 in / 1016.1 hPa 10.0 miles / 16.1 kilometers SSE 9.2 mph / 14.8 km/h - N/A Thunderstorm Mostly Cloudy